Location: Caltech
(34.1382°N, 118.1253°W)
Time: 12:55:18
(UTC-07:00)

KITSAT 1 - Visible Passes

Search period start: 19 October 2017 00:00
Search period end: 29 October 2017 00:00
Orbit: 1304 x 1326 km, 66.1° (Epoch: 18 October)

Date Brightness Start Highest point End Pass type
(mag) Time Alt. Az. Time Alt. Az. Time Alt. Az.
19 Oct 11.6 03:20:22 30° ESE 03:20:22 30° ESE 03:27:00 10° NE visible
19 Oct 10.3 05:12:26 38° WSW 05:15:11 53° WNW 05:23:06 10° NNE visible
20 Oct 11.0 03:37:01 45° E 03:37:01 45° E 03:43:40 10° NE visible
20 Oct 10.8 05:29:03 30° W 05:31:30 36° NW 05:38:51 10° NNE visible
21 Oct 10.6 03:53:30 58° ENE 03:53:30 58° ENE 04:00:00 10° NNE visible
21 Oct 11.2 05:45:31 22° WNW 05:47:59 25° NW 05:54:27 10° N visible
22 Oct 12.6 02:17:50 12° ENE 02:17:50 12° ENE 02:18:30 10° ENE visible
22 Oct 10.5 04:09:51 57° N 04:09:51 57° N 04:16:07 10° NNE visible
22 Oct 11.5 06:01:52 15° WNW 06:04:40 17° NW 06:09:46 10° N visible
23 Oct 12.4 02:34:05 16° ENE 02:34:05 16° ENE 02:35:51 10° NE visible
23 Oct 10.7 04:26:06 45° NNW 04:26:06 45° NNW 04:32:03 10° NNE visible
23 Oct 11.8 06:18:41 10° WNW 06:21:32 12° NW 06:24:23 10° NNW visible
24 Oct 12.1 02:50:14 20° NE 02:50:14 20° NE 02:52:34 10° NE visible
24 Oct 11.0 04:42:15 33° NNW 04:42:15 33° NNW 04:47:50 10° NNE visible
25 Oct 12.0 03:06:20 23° NE 03:06:20 23° NE 03:08:56 10° NNE visible
25 Oct 11.4 04:58:20 25° NNW 04:58:20 25° NNW 05:03:25 10° N visible
26 Oct 11.9 03:22:21 24° NNE 03:22:21 24° NNE 03:25:03 10° NNE visible
26 Oct 11.7 05:14:21 18° NW 05:14:21 18° NW 05:18:46 10° N visible
27 Oct 11.8 03:38:19 23° NNE 03:38:19 23° NNE 03:41:00 10° NNE visible
27 Oct 11.9 05:30:19 12° NW 05:30:23 12° NW 05:33:29 10° NNW visible
28 Oct 11.9 03:54:14 20° N 03:54:14 20° N 03:56:47 10° NNE visible
